• In Hungary
  • List of Countries
  • For 7 days
  • Water Temperature
  • Satellite Maps
  • Weather Map
  • News
  • Weather Widgets
  • user-avatar
    Login

    Hourly Weather Slawatycze

    Today, 16 July, Monday

    Time Temperature Precipitation Wind Pressure Humidity
    00:00 +17°C° 0 mm 3 mps 743 mmHg 96%
    01:00 +17°C° 0 mm 3 mps 743 mmHg 96%
    02:00 +17°C° 0 mm 2 mps 743 mmHg 96%
    03:00 +17°C° 0.2 mm 2 mps 743 mmHg 97%
    04:00 +17°C° 0.2 mm 2 mps 743 mmHg 97%
    05:00 +17°C° 0.2 mm 2 mps 743 mmHg 97%
    06:00 +18°C° 0.8 mm 3 mps 743 mmHg 95%
    07:00 +19°C° 0.8 mm 3 mps 743 mmHg 92%
    08:00 +20°C° 0 mm 3 mps 742 mmHg 90%
    09:00 +21°C° 1 mm 3 mps 742 mmHg 85%
    10:00 +22°C° 1 mm 3 mps 742 mmHg 80%
    11:00 +24°C° 1 mm 3 mps 742 mmHg 75%
    12:00 +25°C° 0.9 mm 4 mps 742 mmHg 75%
    13:00 +25°C° 0.9 mm 4 mps 742 mmHg 75%
    14:00 +25°C° 0 mm 2 mps 742 mmHg 65%
    15:00 +25°C° 0 mm 2 mps 742 mmHg 64%
    16:00 +25°C° 0 mm 2 mps 742 mmHg 64%
    17:00 +25°C° 0 mm 2 mps 741 mmHg 63%
    18:00 +24°C° 0.1 mm 2 mps 741 mmHg 69%
    19:00 +23°C° 0.1 mm 2 mps 741 mmHg 76%
    20:00 +21°C° 0.1 mm 2 mps 741 mmHg 82%
    21:00 +20°C° 0 mm 2 mps 741 mmHg 85%
    22:00 +20°C° 0 mm 1 mps 741 mmHg 88%
    23:00 +20°C° 0 mm 1 mps 741 mmHg 91%

    Tomorrow, 17 July, Tuesday

    Time Temperature Precipitation Wind Pressure Humidity
    00:00 +19°C° 0 mm 1 mps 741 mmHg 92%
    01:00 +19°C° 0 mm 1 mps 741 mmHg 93%
    02:00 +18°C° 0 mm 1 mps 741 mmHg 94%
    03:00 +18°C° 0 mm 1 mps 740 mmHg 95%
    04:00 +18°C° 0 mm 1 mps 740 mmHg 95%
    05:00 +17°C° 0 mm 2 mps 740 mmHg 96%
    06:00 +18°C° 0 mm 2 mps 740 mmHg 93%
    07:00 +19°C° 0 mm 2 mps 740 mmHg 89%
    08:00 +20°C° 0 mm 2 mps 740 mmHg 86%
    09:00 +21°C° 0.2 mm 2 mps 740 mmHg 83%
    10:00 +23°C° 0.2 mm 2 mps 740 mmHg 79%
    11:00 +24°C° 0.2 mm 3 mps 740 mmHg 76%
    12:00 +24°C° 0.7 mm 3 mps 740 mmHg 78%
    13:00 +24°C° 0.7 mm 3 mps 739 mmHg 81%
    14:00 +22°C° 0.7 mm 3 mps 739 mmHg 83%
    15:00 +22°C° 0.3 mm 3 mps 739 mmHg 85%
    16:00 +22°C° 0.3 mm 3 mps 739 mmHg 87%
    17:00 +21°C° 0.3 mm 3 mps 739 mmHg 89%
    18:00 +21°C° 0.6 mm 3 mps 739 mmHg 91%
    19:00 +21°C° 0.6 mm 2 mps 739 mmHg 93%
    20:00 +20°C° 0.6 mm 2 mps 739 mmHg 95%
    21:00 +20°C° 1 mm 2 mps 739 mmHg 95%
    22:00 +20°C° 1 mm 2 mps 739 mmHg 95%
    23:00 +20°C° 1 mm 2 mps 739 mmHg 94%

    Day after tomorrow, 18 July, Wednesday

    Time Temperature Precipitation Wind Pressure Humidity
    00:00 +20°C° 0.2 mm 2 mps 739 mmHg 95%
    01:00 +19°C° 0.2 mm 3 mps 739 mmHg 96%
    02:00 +19°C° 0.2 mm 3 mps 739 mmHg 96%
    03:00 +19°C° 0.3 mm 3 mps 739 mmHg 97%
    04:00 +19°C° 0.3 mm 3 mps 739 mmHg 97%
    05:00 +19°C° 0.3 mm 3 mps 739 mmHg 97%
    06:00 +20°C° 0.4 mm 3 mps 739 mmHg 96%
    07:00 +20°C° 0.4 mm 4 mps 739 mmHg 95%
    08:00 +21°C° 0.4 mm 4 mps 739 mmHg 94%
    09:00 +22°C° 0.1 mm 4 mps 739 mmHg 90%
    10:00 +23°C° 0.1 mm 4 mps 739 mmHg 86%
    11:00 +26°C° 0.1 mm 4 mps 740 mmHg 82%
    12:00 +26°C° 0.9 mm 4 mps 740 mmHg 79%
    13:00 +27°C° 0.9 mm 3 mps 740 mmHg 76%
    14:00 +28°C° 0.9 mm 3 mps 740 mmHg 73%
    15:00 +28°C° 1.6 mm 3 mps 740 mmHg 75%
    16:00 +28°C° 1.6 mm 3 mps 740 mmHg 77%
    17:00 +28°C° 1.6 mm 3 mps 740 mmHg 78%
    18:00 +26°C° 0.8 mm 3 mps 740 mmHg 82%
    19:00 +25°C° 0.8 mm 3 mps 740 mmHg 85%
    20:00 +24°C° 0.8 mm 3 mps 740 mmHg 89%
    21:00 +24°C° 0.3 mm 3 mps 740 mmHg 90%
    22:00 +22°C° 0.3 mm 3 mps 741 mmHg 92%
    23:00 +21°C° 0.3 mm 3 mps 741 mmHg 93%

    19 July, Thursday

    Time Temperature Precipitation Wind Pressure Humidity
    00:00 +21°C° 0 mm 3 mps 741 mmHg 93%
    01:00 +21°C° 0 mm 3 mps 741 mmHg 94%
    02:00 +20°C° 0 mm 2 mps 741 mmHg 94%
    03:00 +20°C° 0 mm 2 mps 741 mmHg 95%
    04:00 +20°C° 0 mm 2 mps 741 mmHg 95%
    05:00 +19°C° 0 mm 2 mps 741 mmHg 96%
    06:00 +20°C° 0 mm 3 mps 741 mmHg 92%
    07:00 +21°C° 0 mm 3 mps 742 mmHg 88%
    08:00 +22°C° 0 mm 3 mps 742 mmHg 85%
    09:00 +25°C° 0 mm 4 mps 742 mmHg 79%
    10:00 +26°C° 0 mm 4 mps 742 mmHg 73%
    11:00 +27°C° 0 mm 4 mps 742 mmHg 67%
    12:00 +27°C° 0 mm 4 mps 742 mmHg 63%
    13:00 +28°C° 0 mm 4 mps 742 mmHg 59%
    14:00 +29°C° 0 mm 4 mps 742 mmHg 56%
    15:00 +28°C° 0 mm 4 mps 742 mmHg 57%
    16:00 +28°C° 0 mm 4 mps 742 mmHg 59%
    17:00 +28°C° 0 mm 4 mps 742 mmHg 61%
    18:00 +27°C° 0.1 mm 4 mps 742 mmHg 67%
    19:00 +25°C° 0.1 mm 4 mps 742 mmHg 73%
    20:00 +24°C° 0.1 mm 3 mps 742 mmHg 79%
    21:00 +22°C° 0 mm 3 mps 742 mmHg 82%
    22:00 +21°C° 0 mm 3 mps 742 mmHg 86%
    23:00 +20°C° 0 mm 3 mps 743 mmHg 89%

    20 July, Friday

    Time Temperature Precipitation Wind Pressure Humidity
    00:00 +19°C° 0 mm 3 mps 743 mmHg 91%
    01:00 +19°C° 0 mm 3 mps 743 mmHg 92%
    02:00 +19°C° 0 mm 3 mps 743 mmHg 94%
    03:00 +18°C° 0 mm 3 mps 743 mmHg 95%
    04:00 +18°C° 0 mm 4 mps 743 mmHg 95%
    05:00 +18°C° 0 mm 4 mps 743 mmHg 96%
    06:00 +19°C° 0 mm 4 mps 743 mmHg 92%
    07:00 +20°C° 0 mm 4 mps 743 mmHg 88%
    08:00 +21°C° 0 mm 4 mps 744 mmHg 84%
    09:00 +22°C° 0.1 mm 5 mps 744 mmHg 80%
    10:00 +23°C° 0.1 mm 5 mps 744 mmHg 76%
    11:00 +25°C° 0.1 mm 5 mps 744 mmHg 72%
    12:00 +25°C° 0.3 mm 5 mps 743 mmHg 71%
    13:00 +26°C° 0.3 mm 6 mps 743 mmHg 69%
    14:00 +26°C° 0.3 mm 6 mps 743 mmHg 68%
    15:00 +26°C° 0.1 mm 6 mps 743 mmHg 67%
    16:00 +26°C° 0.1 mm 5 mps 743 mmHg 66%
    17:00 +26°C° 0.1 mm 5 mps 743 mmHg 65%
    18:00 +25°C° 0 mm 4 mps 743 mmHg 69%
    19:00 +24°C° 0 mm 3 mps 743 mmHg 74%
    20:00 +22°C° 0 mm 3 mps 743 mmHg 78%
    21:00 +21°C° 0 mm 3 mps 743 mmHg 80%
    22:00 +20°C° 0 mm 3 mps 743 mmHg 82%
    23:00 +19°C° 0 mm 3 mps 743 mmHg 84%

    21 July, Saturday

    Time Temperature Precipitation Wind Pressure Humidity
    00:00 +19°C° 0 mm 3 mps 743 mmHg 87%
    01:00 +18°C° 0 mm 3 mps 743 mmHg 90%
    02:00 +17°C° 0 mm 3 mps 743 mmHg 93%
    03:00 +17°C° 0 mm 3 mps 743 mmHg 94%
    04:00 +16°C° 0 mm 3 mps 743 mmHg 95%
    05:00 +16°C° 0 mm 3 mps 744 mmHg 96%
    06:00 +17°C° 0 mm 3 mps 744 mmHg 90%
    07:00 +19°C° 0 mm 3 mps 744 mmHg 84%
    08:00 +20°C° 0 mm 4 mps 744 mmHg 79%
    09:00 +21°C° 0 mm 4 mps 744 mmHg 73%
    10:00 +23°C° 0 mm 4 mps 744 mmHg 67%
    11:00 +26°C° 0 mm 4 mps 744 mmHg 61%
    12:00 +26°C° 0 mm 4 mps 744 mmHg 59%
    13:00 +27°C° 0 mm 4 mps 744 mmHg 57%
    14:00 +27°C° 0 mm 4 mps 744 mmHg 55%
    15:00 +27°C° 0 mm 3 mps 743 mmHg 55%
    16:00 +27°C° 0 mm 3 mps 743 mmHg 55%
    17:00 +27°C° 0 mm 3 mps 743 mmHg 55%
    18:00 +26°C° 0 mm 3 mps 743 mmHg 60%
    19:00 +24°C° 0 mm 2 mps 743 mmHg 65%
    20:00 +23°C° 0 mm 2 mps 743 mmHg 71%
    21:00 +21°C° 0 mm 2 mps 743 mmHg 71%
    22:00 +21°C° 0 mm 1 mps 743 mmHg 71%
    23:00 +20°C° 0 mm 1 mps 743 mmHg 72%
    Show more